Weather History for Windom, MN

Change the Weather History Date:

Sunday, November 11, 2012

  Actual Average Record
Temperature  
Mean Temperature 32 °F -  
Max Temperature 44 °F 40 °F 68 °F (1967)
Min Temperature 19 °F 23 °F -6 °F (1986)
Degree Days  
Heating Degree Days 34    
Moisture  
Dew Point 22 °F    
Average Humidity 79    
Maximum Humidity 93    
Minimum Humidity 64    
Precipitation  
Precipitation 0.00 in - - ()
Sea Level Pressure  
Sea Level Pressure 29.82 in    
Wind  
Wind Speed 19 mph (West)    
Max Wind Speed 26 mph    
Max Gust Speed 31 mph    
Visibility 10 miles    
Events Snow    
Averages and records for this station are not official NWS values.
T = Trace of Precipitation, MM = Missing Value Source: NWS Daily Summary

Daily Weather History Graph

Daily Weather History Graph

Search for Another Location

Airport:

Trip Planner

Search our weather history database for the weather conditions in past years. The results will help you decide how hot, cold, wet, or windy it might be!

Date:

Astronomy

Nov. 11, 2012 Rise Set
Actual Time 7:10 AM CST 4:57 PM CST
Civil Twilight 6:39 AM CST 5:28 PM CST
Nautical Twilight 6:05 AM CST 6:03 PM CST
Astronomical Twilight 5:31 AM CST 6:37 PM CST
Moon 4:21 AM CST (11/11) 3:25 PM CST (11/11)
Length of Visible Light 10h 48m
Length of Day
9h 47m
Waning Crescent, 7% of the Moon is Illuminated
Nov 11
Waning Crescent
Nov 13
New
Nov 20
First Quarter
Nov 28
Full
Dec 6
Last Quarter

Hourly Weather History & Observations

Time (CST) Temp. Windchill Dew Point Humidity Pressure Visibility Wind Dir Wind Speed Gust Speed Precip Events Conditions
12:32 AM 44.6 °F 35.5 °F 42.8 °F 93% 29.58 in 10.0 mi West 25.3 mph 28.8 mph N/A   Overcast
12:52 AM 42.8 °F 33.8 °F 41.0 °F 93% 29.60 in 7.0 mi West 21.9 mph 28.8 mph N/A   Overcast
1:13 AM 41.0 °F 32.5 °F 39.2 °F 93% 29.60 in 10.0 mi West 17.3 mph - N/A   Overcast
1:32 AM 39.2 °F 30.8 °F 37.4 °F 93% 29.63 in 10.0 mi West 15.0 mph - N/A   Overcast
1:53 AM 39.2 °F 29.8 °F 35.6 °F 87% 29.64 in 10.0 mi West 18.4 mph 24.2 mph N/A   Overcast
2:13 AM 37.4 °F 27.2 °F 35.6 °F 93% 29.64 in 10.0 mi WNW 19.6 mph - N/A   Overcast
2:32 AM 37.4 °F 28.9 °F 35.6 °F 93% 29.65 in 10.0 mi WNW 13.8 mph - N/A   Overcast
2:53 AM 37.4 °F 28.2 °F 35.6 °F 93% 29.67 in 5.0 mi WNW 16.1 mph - N/A   Overcast
3:13 AM 35.6 °F 27.1 °F 33.8 °F 93% 29.65 in 10.0 mi WNW 12.7 mph - N/A   Overcast
3:32 AM 35.6 °F 25.9 °F 33.8 °F 93% 29.67 in 10.0 mi WNW 16.1 mph - N/A   Overcast
3:53 AM 33.8 °F 23.2 °F 32.0 °F 93% 29.69 in 10.0 mi WNW 17.3 mph - N/A   Overcast
4:13 AM 33.8 °F 22.5 °F 30.2 °F 87% 29.70 in 10.0 mi WNW 19.6 mph 24.2 mph N/A   Overcast
4:32 AM 33.8 °F 23.5 °F 30.2 °F 87% 29.71 in 10.0 mi WNW 16.1 mph - N/A   Overcast
4:53 AM 32.0 °F 20.8 °F 28.4 °F 87% 29.72 in 10.0 mi WNW 17.3 mph 23.0 mph N/A   Overcast
5:13 AM 32.0 °F 20.1 °F 28.4 °F 87% 29.72 in 10.0 mi WNW 19.6 mph 24.2 mph N/A   Overcast
5:32 AM 30.2 °F 18.1 °F 28.4 °F 93% 29.73 in 10.0 mi WNW 18.4 mph 24.2 mph N/A   Overcast
5:53 AM 30.2 °F 17.4 °F 26.6 °F 86% 29.74 in 10.0 mi WNW 20.7 mph 26.5 mph N/A   Overcast
6:13 AM 30.2 °F 19.3 °F 26.6 °F 86% 29.74 in 7.0 mi WNW 15.0 mph 24.2 mph N/A   Overcast
6:32 AM 28.4 °F 18.0 °F 26.6 °F 93% 29.76 in 7.0 mi WNW 12.7 mph 17.3 mph N/A   Overcast
6:53 AM 28.4 °F 15.8 °F 26.6 °F 93% 29.76 in 10.0 mi West 18.4 mph 23.0 mph N/A   Overcast
7:32 AM 28.4 °F 15.8 °F 24.8 °F 86% 29.77 in 10.0 mi WNW 18.4 mph 25.3 mph N/A   Overcast
7:52 AM 28.4 °F 15.8 °F 24.8 °F 86% 29.78 in 10.0 mi WNW 18.4 mph 26.5 mph N/A   Overcast
8:13 AM 28.4 °F 15.1 °F 24.8 °F 86% 29.78 in 10.0 mi WNW 20.7 mph 26.5 mph N/A   Overcast
8:32 AM 26.6 °F 13.8 °F 23.0 °F 86% 29.81 in 10.0 mi WNW 17.3 mph 20.7 mph N/A   Overcast
8:52 AM 26.6 °F 14.3 °F 23.0 °F 86% 29.81 in 10.0 mi WNW 16.1 mph - N/A   Overcast
9:13 AM 26.6 °F 12.7 °F 23.0 °F 86% 29.80 in 10.0 mi West 20.7 mph 24.2 mph N/A   Overcast
10:13 AM 26.6 °F 12.0 °F 21.2 °F 80% 29.81 in 10.0 mi West 23.0 mph - N/A   Overcast
10:32 AM 26.6 °F 13.4 °F 21.2 °F 80% 29.81 in 10.0 mi West 18.4 mph 26.5 mph N/A   Overcast
10:52 AM 24.8 °F 10.7 °F 21.2 °F 86% 29.83 in 10.0 mi WNW 19.6 mph 26.5 mph N/A   Overcast
11:12 AM 26.6 °F 13.1 °F 19.4 °F 74% 29.84 in 10.0 mi WNW 19.6 mph - N/A   Mostly Cloudy
11:32 AM 26.6 °F 13.8 °F 21.2 °F 80% 29.82 in 10.0 mi West 17.3 mph 25.3 mph N/A   Scattered Clouds
11:53 AM 28.4 °F 15.4 °F 21.2 °F 74% 29.82 in 10.0 mi West 19.6 mph 23.0 mph N/A   Mostly Cloudy
12:12 PM 28.4 °F 14.4 °F 21.2 °F 74% 29.81 in 10.0 mi West 23.0 mph 26.5 mph N/A   Mostly Cloudy
12:32 PM 28.4 °F 14.4 °F 21.2 °F 74% 29.81 in 10.0 mi West 23.0 mph 29.9 mph N/A   Mostly Cloudy
12:53 PM 30.2 °F 17.4 °F 21.2 °F 69% 29.82 in 10.0 mi West 20.7 mph 26.5 mph N/A   Scattered Clouds
1:12 PM 28.4 °F 14.1 °F 19.4 °F 69% 29.81 in 10.0 mi West 24.2 mph 28.8 mph N/A   Mostly Cloudy
1:32 PM 28.4 °F 13.8 °F 17.6 °F 64% 29.81 in 10.0 mi WNW 25.3 mph 31.1 mph N/A   Scattered Clouds
1:53 PM 28.4 °F 14.4 °F 19.4 °F 69% 29.81 in 10.0 mi West 23.0 mph 31.1 mph N/A   Clear
2:12 PM 28.4 °F 15.1 °F 19.4 °F 69% 29.83 in 10.0 mi West 20.7 mph 27.6 mph N/A   Scattered Clouds
2:32 PM 26.6 °F 12.4 °F 17.6 °F 69% 29.83 in 10.0 mi West 21.9 mph 26.5 mph N/A   Scattered Clouds
2:53 PM 28.4 °F 15.1 °F 19.4 °F 69% 29.84 in 10.0 mi West 20.7 mph 28.8 mph N/A   Scattered Clouds
3:12 PM 28.4 °F 15.8 °F 17.6 °F 64% 29.84 in 10.0 mi West 18.4 mph 25.3 mph N/A   Scattered Clouds
3:32 PM 26.6 °F 13.1 °F 17.6 °F 69% 29.85 in 10.0 mi WNW 19.6 mph - N/A   Scattered Clouds
3:53 PM 26.6 °F 13.4 °F 17.6 °F 69% 29.87 in 10.0 mi West 18.4 mph 25.3 mph N/A   Scattered Clouds
4:12 PM 26.6 °F 13.1 °F 17.6 °F 69% 29.87 in 10.0 mi West 19.6 mph 28.8 mph N/A   Mostly Cloudy
4:32 PM 24.8 °F 10.7 °F 15.8 °F 69% 29.88 in 10.0 mi West 19.6 mph 25.3 mph N/A   Scattered Clouds
4:53 PM 24.8 °F 10.7 °F 15.8 °F 69% 29.88 in 10.0 mi West 19.6 mph 29.9 mph N/A   Scattered Clouds
5:12 PM 23.0 °F 8.3 °F 15.8 °F 74% 29.89 in 10.0 mi West 19.6 mph 27.6 mph N/A   Clear
5:32 PM 23.0 °F 7.2 °F 14.0 °F 68% 29.90 in 10.0 mi West 23.0 mph 28.8 mph N/A   Clear
5:53 PM 21.2 °F 4.9 °F 14.0 °F 74% 29.91 in 10.0 mi West 23.0 mph - N/A   Clear
6:12 PM 21.2 °F 5.2 °F 14.0 °F 74% 29.91 in 10.0 mi West 21.9 mph 28.8 mph N/A   Clear
6:32 PM 21.2 °F 6.4 °F 14.0 °F 74% 29.92 in 10.0 mi West 18.4 mph - N/A   Clear
6:53 PM 21.2 °F 6.4 °F 14.0 °F 74% 29.93 in 10.0 mi West 18.4 mph 24.2 mph N/A   Clear
7:12 PM 21.2 °F 7.8 °F 12.2 °F 68% 29.94 in 10.0 mi West 15.0 mph 27.6 mph N/A   Scattered Clouds
7:32 PM 19.4 °F 2.1 °F 12.2 °F 74% 29.94 in 10.0 mi West 24.2 mph 28.8 mph N/A   Scattered Clouds
7:53 PM 19.4 °F 2.8 °F 12.2 °F 74% 29.95 in 10.0 mi West 21.9 mph 26.5 mph N/A   Scattered Clouds
8:12 PM 19.4 °F 3.6 °F 12.2 °F 74% 29.95 in 10.0 mi West 19.6 mph 24.2 mph N/A   Scattered Clouds
8:33 PM 19.4 °F 4.5 °F 12.2 °F 74% 29.96 in 10.0 mi West 17.3 mph 24.2 mph N/A   Mostly Cloudy
8:52 PM 19.4 °F 5.0 °F 12.2 °F 74% 29.96 in 10.0 mi West 16.1 mph - N/A   Scattered Clouds
9:13 PM 19.4 °F 5.0 °F 12.2 °F 74% 29.97 in 10.0 mi West 16.1 mph - N/A   Scattered Clouds
9:33 PM 19.4 °F 6.0 °F 12.2 °F 74% 29.97 in 10.0 mi West 13.8 mph - N/A   Mostly Cloudy
9:52 PM 19.4 °F 5.0 °F 12.2 °F 74% 29.97 in 10.0 mi West 16.1 mph 21.9 mph N/A   Overcast
10:13 PM 21.2 °F 8.3 °F 12.2 °F 68% 29.97 in 10.0 mi West 13.8 mph 21.9 mph N/A   Overcast
10:32 PM 21.2 °F 6.8 °F 14.0 °F 74% 29.97 in 10.0 mi West 17.3 mph 23.0 mph N/A   Overcast
10:52 PM 21.2 °F 6.4 °F 15.8 °F 80% 29.97 in 10.0 mi West 18.4 mph 23.0 mph N/A Snow Light Snow
11:13 PM 21.2 °F 6.4 °F 15.8 °F 80% 29.96 in 10.0 mi West 18.4 mph 25.3 mph N/A   Overcast
11:32 PM 21.2 °F 3.9 °F 12.2 °F 68% 29.97 in 10.0 mi West 26.5 mph 31.1 mph N/A   Overcast
11:52 PM 19.4 °F 4.5 °F 12.2 °F 74% 29.97 in 10.0 mi West 17.3 mph 24.2 mph N/A   Mostly Cloudy